Location: Evansville
(37.9747°N, 87.5558°W)
Time: 02:02:21
(UTC-06:00)

BlueWalker 3 - Pass Details

Date: 18 December 2025
Orbit: 451 x 463 km, 53.2° (Epoch: 18 January)

Event Time Altitude Azimuth Distance (km) Brightness Sun altitude
Rises 05:55:52 0° 192° (SSW) 2,442 5.5 -12.5°
Reaches altitude 10° 05:58:25 10° 174° (S) 1,577 4.8 -12.0°
Maximum altitude 06:00:58 19° 127° (SE) 1,148 4.8 -11.5°
Drops below altitude 10° 06:03:33 10° 81° (E) 1,591 5.5 -11.1°
Sets 06:06:07 0° 63° (ENE) 2,472 6.1 -10.6°
